User: anonymous   Login
Location: Unspecified
(0.0000°N, 0.0000°E)
Time: 11:20:26
(UTC+00:00)
Language:

YUBELEINY 2 - Orbit

View from above orbital plane
View from above orbital plane
View from above satellite
View from above satellite

Ground track
Ground track

The orbit data is extracted from the following two-line orbital elements,

1 38735U 12041C   18267.55274115 +.00000003 +00000-0 -53646-4 0  9990
2 38735 082.4790 034.6511 0017786 098.3445 261.9651 12.42577547279349
Epoch (UTC): 24 September 2018 13:15:56
Eccentricity: 0.0017786
inclination: 82.4790°
perigee height: 1481 km
apogee height: 1509 km
right ascension of ascending node: 34.6511°
argument of perigee: 98.3445°
revolutions per day: 12.42577547
mean anomaly at epoch: 261.9651°
orbit number at epoch: 27934

The dashed part of the orbit path shows where the satellite is in the earth's shadow,  

DLR